Theta_e
308 308 308 308 308 309 309 307 306 304 306 306 308 310 310 306 305 308 312 312 313 311 309 310 311 313 315 320 321 320 324 329 328 326 326 324 324 324 323 322 322 323 329 337 338
307 308 308 308 308 307 305 303 304 304 305 306 306 306 306 307 311 313 311 312 310 307 307 310 313 313 313 317 320 320 324 326 328 327 327 326 327 326 323 322 323 323 332 334 335
305 305 304 302 302 302 302 302 303 304 305 306 306 306 306 308 315 315 314 308 306 305 309 311 312 312 313 314 318 323 324 325 327 328 327 327 327 327 326 325 323 323 324 331 333
300 299 299 298 299 300 301 301 302 303 304 305 305 306 306 313 320 313 308 310 310 310 313 314 311 310 313 313 315 317 323 326 327 327 327 327 327 328 327 325 326 326 324 324 329
306 306 306 301 298 299 300 300 302 303 304 304 305 306 308 318 318 309 311 312 312 313 315 314 310 309 311 314 315 316 316 317 320 324 326 327 327 327 327 327 327 327 327 325 326
308 307 306 302 300 300 301 300 302 304 305 305 305 306 316 321 311 312 312 313 313 313 313 312 312 311 311 310 310 312 314 316 317 316 318 325 327 327 327 327 328 328 327 327 326
309 309 308 305 302 301 302 301 302 305 306 305 306 313 315 316 311 311 312 313 312 313 313 313 312 311 310 310 311 311 310 312 315 317 317 317 320 324 327 326 327 328 328 328 327
310 309 308 306 306 306 304 301 303 307 307 307 307 314 317 313 310 311 310 310 311 312 312 312 312 311 311 310 311 310 310 310 313 315 317 316 317 318 320 326 327 327 328 328 327
309 308 306 307 308 306 305 300 303 306 309 307 312 314 320 311 311 310 309 310 311 311 311 311 312 311 311 310 309 310 309 309 311 311 312 314 317 318 318 320 325 327 327 327 327
307 305 304 306 306 305 302 302 308 312 314 315 315 316 314 313 310 309 309 311 311 311 312 311 309 310 309 309 310 310 309 310 311 311 310 310 311 313 316 319 320 323 326 327 327
304 305 304 303 304 304 302 312 314 315 314 319 318 316 313 311 310 310 311 311 312 313 311 311 310 310 310 311 312 312 312 312 313 314 312 312 313 313 314 313 314 319 321 325 326
304 305 304 303 301 301 303 310 311 312 311 313 312 312 311 310 310 312 310 310 310 310 310 309 310 312 313 313 313 312 312 312 313 313 313 312 312 312 313 313 313 314 318 322 325
304 305 304 304 306 309 309 313 312 312 311 314 313 311 311 310 310 311 311 310 310 309 310 310 311 312 312 311 312 312 311 311 312 312 312 312 312 312 312 313 314 314 315 320 324
303 305 304 306 309 312 314 312 313 311 313 314 310 311 310 309 310 312 311 310 310 309 310 309 310 312 312 312 312 313 314 315 314 311 311 312 312 311 312 312 312 313 315 316 320
303 304 304 305 307 312 312 312 313 312 326 313 311 310 311 309 311 311 311 310 309 309 309 308 308 310 311 312 315 315 314 314 314 312 309 310 309 310 310 311 312 312 314 316 318
304 305 305 312 312 313 311 312 314 320 325 311 311 311 310 311 312 312 311 310 309 309 309 309 309 313 315 314 314 313 313 313 311 309 310 309 310 310 309 310 311 312 313 314 317
305 306 306 307 313 312 311 313 318 325 315 313 312 311 310 311 312 310 310 309 309 311 310 310 309 314 314 313 312 311 313 316 315 313 313 311 311 310 311 313 314 314 314 314 314
306 308 308 312 312 312 311 315 323 320 314 313 312 312 312 312 311 311 310 310 311 310 309 310 310 309 314 313 311 312 314 319 318 313 312 312 314 312 312 313 314 314 314 314 315
308 313 313 316 313 309 311 318 321 313 312 312 312 313 312 312 312 311 310 310 311 310 311 311 312 311 310 310 310 310 311 310 312 311 313 312 313 313 315 318 319 318 317 317 316
307 312 315 311 309 311 314 319 315 311 311 312 313 313 312 312 312 310 311 312 312 311 309 311 310 310 310 311 311 311 310 312 313 316 316 313 312 313 319 319 317 317 315 316 317
310 316 315 310 310 313 317 314 311 309 310 312 313 313 312 312 311 311 312 312 313 311 310 310 312 313 310 311 312 313 313 316 317 319 320 317 314 320 318 317 317 315 315 316 318
311 317 312 311 314 318 315 314 312 311 312 313 312 312 312 313 312 312 313 313 312 313 313 312 311 311 311 310 314 315 316 314 318 319 318 318 317 317 316 315 316 315 315 318 320
311 314 314 313 315 314 314 313 313 312 312 311 312 312 311 311 313 313 314 313 313 313 314 313 312 314 311 311 312 313 312 312 312 312 316 318 315 313 315 315 316 317 317 318 319
312 315 314 312 311 313 312 313 314 313 312 312 312 312 312 312 311 313 313 312 312 312 314 313 313 313 314 313 312 314 313 312 313 315 314 315 314 316 317 316 316 315 315 316 316
310 312 311 311 311 312 312 313 314 315 312 311 312 311 310 313 312 311 310 311 311 313 313 313 315 315 314 313 313 312 313 313 314 313 315 316 317 317 316 315 316 316 316 316 316
307 308 307 308 311 313 313 313 312 312 311 311 311 312 310 311 310 312 310 311 313 313 313 313 317 315 316 313 314 315 314 314 313 313 314 314 316 315 316 316 316 316 317 316 316
307 306 307 309 311 310 310 310 311 310 310 310 310 310 310 310 311 310 309 309 310 311 311 315 317 314 314 313 314 315 318 317 315 314 314 314 315 314 314 315 316 317 317 322 323
Wind_Speed
19 19 19 19 20 20 19 18 18 16 15 16 17 18 18 20 22 13 7 6 9 7 9 12 10 12 15 6 5 4 3 11 14 13 13 15 9 8 7 6 11 6 4 3 10
19 19 20 20 20 20 19 19 18 17 17 17 18 18 19 21 19 13 8 8 7 8 7 9 8 8 5 5 5 6 4 11 12 14 15 12 15 15 8 9 12 13 2 13 8
21 21 21 22 22 21 20 19 18 18 18 19 20 20 20 19 6 0 8 3 4 6 6 9 17 9 6 6 11 6 14 12 16 19 17 17 15 15 5 10 11 7 15 2 5
21 22 22 23 22 21 20 19 19 19 19 20 21 21 21 2 4 7 3 4 1 4 5 8 7 6 4 7 7 15 18 17 18 21 23 22 16 17 14 8 15 14 12 10 11
22 23 23 24 24 23 20 19 19 20 20 20 20 18 8 3 6 5 2 1 7 8 15 8 6 6 9 8 14 19 17 17 16 20 21 21 21 17 20 11 15 16 14 11 12
25 25 26 26 26 24 21 19 18 19 21 20 16 12 3 4 3 4 0 6 11 1 11 9 5 8 5 6 7 7 14 14 16 18 15 18 20 19 22 15 13 16 12 12 8
29 29 29 28 27 25 21 19 17 19 17 14 8 3 5 11 2 3 8 7 6 2 4 12 14 8 9 9 8 10 9 15 16 14 18 8 15 24 21 18 20 13 16 14 10
28 29 30 31 28 25 21 18 17 16 14 8 6 3 6 2 6 7 5 11 9 7 8 10 8 4 4 7 7 7 7 6 2 9 13 10 23 24 11 17 20 18 15 18 16
30 30 32 31 30 24 19 17 16 16 13 8 4 5 7 8 3 5 6 7 8 11 13 11 4 4 6 5 6 5 8 11 17 9 11 9 20 25 18 15 14 17 17 17 19
30 34 35 32 29 21 17 15 15 14 5 4 11 5 8 4 6 7 11 3 7 6 8 8 5 5 4 3 4 7 9 11 15 5 8 11 18 19 11 20 21 13 18 18 18
31 34 35 30 21 14 16 6 1 0 5 7 8 7 11 7 6 7 6 5 9 5 5 6 3 5 11 10 8 8 13 14 15 13 15 13 15 21 14 15 16 21 17 16 19
32 33 31 23 16 13 10 4 9 8 7 12 16 13 7 2 4 6 1 2 5 6 9 6 6 8 9 9 8 8 14 16 14 10 14 12 19 20 18 17 18 20 18 18 19
34 32 26 18 15 13 6 6 10 11 3 8 8 4 5 8 6 8 2 3 6 6 8 6 10 12 13 12 13 8 8 12 15 12 15 10 15 23 25 18 17 20 19 13 18
36 32 20 18 10 10 6 11 12 10 2 7 5 2 4 6 6 4 5 3 3 5 6 6 8 12 9 13 13 12 12 17 15 9 10 6 15 11 18 25 21 20 19 17 9
37 30 14 10 15 10 11 13 11 1 2 7 7 7 3 4 6 5 13 5 8 9 5 9 12 7 7 10 10 13 18 20 20 13 5 7 8 17 9 19 22 21 20 22 15
35 24 11 4 9 15 18 14 9 1 2 4 6 5 5 5 9 1 5 7 9 10 10 12 12 4 3 6 9 14 11 17 12 3 10 12 11 18 16 17 21 23 22 24 22
29 15 7 8 5 18 18 9 1 1 4 7 6 9 8 12 4 3 2 6 6 4 5 7 9 3 3 2 5 6 6 4 4 3 9 11 12 15 13 14 19 20 23 19 23
22 8 4 9 8 15 18 2 2 9 11 11 11 12 13 9 2 2 8 7 3 6 3 3 6 10 3 4 5 4 4 5 5 6 11 9 6 12 15 15 17 22 20 19 21
21 9 6 7 6 11 3 2 3 6 10 11 12 9 9 8 4 8 8 5 7 12 5 5 5 13 15 14 14 7 6 10 7 11 3 5 11 12 15 14 21 21 23 25 25
19 6 1 1 8 3 1 4 3 10 9 8 6 10 11 12 10 8 8 8 7 11 7 4 15 7 13 14 10 5 8 6 4 5 6 6 13 6 14 18 21 23 25 28 20
3 2 3 4 4 2 1 4 7 13 6 5 9 8 9 8 10 10 6 11 12 9 8 6 2 8 10 4 9 7 5 3 3 3 2 5 2 2 9 7 13 18 23 24 24
7 1 5 3 1 3 4 9 10 8 8 8 2 4 6 10 7 8 8 8 7 7 4 5 3 5 16 16 12 6 8 3 2 2 4 4 8 7 8 6 10 16 23 21 20
5 3 4 1 2 3 6 12 14 3 2 5 6 7 7 6 5 5 9 10 8 6 5 2 4 5 6 2 0 1 5 6 4 4 5 7 6 7 7 10 10 10 18 20 25
3 4 3 2 3 5 7 8 13 12 8 4 4 7 7 6 3 4 8 9 6 8 6 1 4 6 7 13 11 17 18 15 7 3 7 11 19 14 7 8 11 16 17 21 24
2 3 3 4 4 11 7 8 12 10 9 9 7 11 12 6 7 7 9 11 13 8 4 3 5 9 14 18 19 20 18 17 17 13 8 8 12 9 2 2 3 6 13 17 23
3 4 4 7 9 8 10 6 10 10 9 7 9 9 12 8 7 12 9 4 6 6 3 5 4 6 13 19 17 19 17 15 14 10 7 11 10 11 4 2 7 9 15 20 24
12 9 2 5 6 6 5 11 13 11 7 6 9 12 9 14 12 9 9 10 11 13 13 7 4 1 6 12 17 9 4 6 7 9 10 10 6 11 12 11 10 12 15 17 16
Wind_Direction
347 343 340 338 335 333 330 328 326 324 323 325 327 323 321 322 317 319 239 249 222 277 304 304 283 267 264 216 247 318 221 243 245 251 277 303 327 314 278 325 326 311 30 135 55
346 343 340 338 335 331 329 328 327 323 323 326 328 330 331 330 316 268 241 235 271 294 298 303 306 250 219 230 214 206 211 235 253 258 265 277 306 309 348 327 313 319 70 114 87
342 340 339 337 335 331 327 323 321 319 319 322 325 325 327 331 285 110 197 227 274 281 281 281 281 287 275 247 226 219 239 256 262 273 287 294 304 315 304 298 286 303 328 264 161
341 339 336 334 331 328 324 320 317 316 315 318 321 323 326 311 27 174 103 76 45 241 265 259 242 251 246 251 269 256 241 237 245 255 274 277 286 290 289 255 280 296 305 320 293
339 336 332 330 329 325 320 317 315 315 315 314 318 326 347 238 243 141 109 314 285 237 229 237 248 247 235 238 239 255 267 268 258 246 242 263 267 272 274 273 267 283 298 309 325
341 337 332 328 325 322 317 312 311 313 315 312 313 328 269 275 131 150 256 267 264 282 329 319 327 307 306 302 292 290 287 277 270 265 264 248 255 260 260 270 271 272 281 292 291
338 335 332 328 324 318 313 308 308 316 321 322 318 315 268 250 283 257 259 268 296 160 294 325 351 8 342 327 301 325 321 306 277 280 274 310 279 244 246 251 255 268 274 280 282
335 334 330 327 323 318 310 302 301 316 320 321 317 258 259 220 246 254 338 301 281 236 237 267 224 266 260 267 297 297 279 279 271 279 283 260 271 272 281 238 238 241 251 270 270
335 334 331 327 323 318 305 296 296 306 307 300 302 203 271 201 234 11 297 307 330 284 280 270 134 219 289 272 308 258 270 275 287 255 277 263 266 262 262 266 250 232 231 240 265
334 339 337 330 325 317 304 306 299 289 303 261 262 272 270 265 50 310 264 329 300 278 276 229 207 196 261 200 235 249 260 266 267 277 257 263 270 275 277 250 254 250 229 231 240
344 341 339 337 333 319 326 354 24 153 228 241 265 233 297 40 343 271 95 286 273 252 294 321 355 257 241 242 255 290 299 295 303 324 326 302 292 294 305 298 304 260 238 223 227
345 343 339 338 334 316 313 261 20 309 307 279 260 254 294 52 279 288 315 250 328 295 303 319 232 250 312 322 322 317 306 301 303 297 289 307 300 294 297 291 292 292 279 231 217
345 342 338 330 321 300 243 340 328 7 295 301 215 215 223 177 252 269 86 317 317 333 326 323 295 321 320 316 313 281 271 290 286 289 282 301 287 295 294 286 285 286 281 275 226
345 340 335 320 319 312 280 354 349 7 298 172 174 175 174 211 237 163 183 81 298 299 313 292 291 300 342 327 321 305 316 311 300 283 274 226 277 261 290 294 294 294 295 276 264
344 339 322 321 308 317 352 350 341 350 47 177 122 155 226 218 262 118 147 175 251 270 279 260 283 281 274 298 355 311 333 304 300 285 312 282 281 285 298 290 292 288 286 290 264
343 340 318 27 299 300 341 324 303 322 281 137 149 192 223 264 295 141 181 204 235 242 240 247 252 52 70 6 320 315 338 310 287 273 266 276 253 273 272 274 271 278 281 286 289
343 340 301 306 270 340 338 315 358 218 213 39 354 353 334 285 276 209 237 277 254 291 352 350 335 119 92 356 284 341 6 338 328 315 269 280 281 272 274 294 296 297 295 300 288
343 328 269 285 309 329 327 330 308 310 29 360 348 306 267 255 18 239 248 266 311 54 3 275 330 318 35 224 236 276 200 210 252 268 280 295 257 277 279 283 285 280 296 282 279
345 336 276 279 313 340 27 9 231 24 14 350 323 315 360 63 338 344 345 326 31 44 34 348 311 325 323 322 321 280 265 263 288 286 287 252 266 274 349 9 350 345 340 335 335
338 321 40 6 328 334 39 273 352 40 15 343 323 15 346 337 341 352 353 2 17 36 64 315 306 289 317 328 305 245 287 324 4 315 290 291 287 290 9 354 348 344 339 325 322
341 267 177 335 306 349 260 312 5 348 349 351 337 319 329 313 349 334 328 309 22 356 357 9 25 304 314 288 325 5 356 41 180 241 246 275 284 90 50 16 336 331 328 324 326
327 311 191 183 45 279 0 325 336 317 336 313 226 277 295 324 325 316 294 348 358 19 6 19 266 292 298 288 138 162 235 244 219 217 264 233 268 122 122 65 21 324 327 322 310
316 265 230 224 38 337 307 350 316 353 14 318 292 336 338 317 305 318 328 320 28 0 5 22 310 318 307 129 177 203 242 241 237 241 239 283 271 241 67 25 20 5 323 322 315
299 349 356 341 14 360 344 314 324 303 270 278 273 283 289 256 280 259 289 298 324 290 352 233 215 218 256 269 274 281 285 282 181 229 276 271 306 12 40 2 36 12 316 320 305
324 359 16 304 330 310 282 286 296 328 12 8 343 325 302 305 317 296 283 303 290 292 180 179 245 258 275 283 286 286 291 298 299 242 251 314 280 354 127 280 89 313 291 286 297
18 0 346 297 280 290 280 321 333 322 348 318 294 345 346 320 296 313 311 317 275 270 230 145 266 307 294 286 268 268 271 259 281 331 351 315 314 3 38 280 274 263 278 283 283
10 343 286 279 299 330 340 332 309 315 313 311 310 312 305 289 298 296 290 275 253 270 267 209 201 9 263 310 304 291 59 4 320 341 335 297 331 340 333 318 316 318 311 313 332